Wind_Speed
18 19 19 20 20 20 21 21 20 20 20 20 19 19 18 18 17 17 17 16 16 17 17 18 19 20 21 21 22 22 21 21 21 21 21 21 20 20 20 20 20 20 20 20 20 20 20 19 19 19 18 18 17 17 17 16 16 16 16 16 16 16 16 16 16 17 18 19 20 20 19 17 16 15 14 14 13 12 12 11 11 12 12 13 13 13
16 17 18 18 19 20 21 21 21 21 20 20 20 20 19 19 19 18 18 17 17 16 16 17 18 18 19 20 20 20 19 19 19 19 19 19 19 20 20 20 20 20 20 20 20 20 19 19 19 19 19 18 18 17 17 16 16 16 16 16 16 16 17 16 16 17 17 18 18 18 17 17 16 15 15 14 13 12 11 11 11 12 13 13 14 15
15 16 18 18 19 20 21 22 22 21 21 20 20 20 20 20 20 19 19 18 17 17 16 16 17 17 18 19 19 19 18 18 18 18 18 18 19 19 19 20 20 20 20 20 20 19 19 19 19 19 19 19 19 19 18 17 17 17 17 16 16 17 17 17 16 16 17 17 16 16 16 16 15 15 14 13 13 12 12 12 12 12 13 14 16 17
16 16 18 19 19 20 21 22 22 22 21 21 21 21 21 21 21 21 20 19 18 18 17 17 17 18 18 19 19 19 18 18 18 18 18 19 19 19 20 20 20 21 21 21 20 20 19 19 19 19 20 21 21 20 20 19 18 18 18 17 17 17 18 17 17 18 18 17 16 16 15 15 14 14 14 13 13 13 13 13 13 14 15 16 18 19
17 17 19 19 20 21 22 23 22 22 22 22 21 21 22 22 22 22 22 21 21 20 19 19 19 19 19 19 19 19 19 19 19 19 20 20 20 21 21 21 22 22 22 22 21 21 20 20 20 20 21 21 22 22 21 20 19 19 19 18 18 18 18 18 19 20 20 18 17 16 15 15 14 14 14 14 14 15 15 15 15 16 18 19 21 20
19 18 19 20 21 22 23 23 23 23 23 22 22 22 22 22 23 23 23 23 22 22 21 21 20 20 20 20 20 20 19 20 20 21 21 22 22 23 23 23 23 24 24 23 23 23 22 22 22 22 22 22 22 22 22 21 20 20 19 18 18 18 19 20 22 22 21 19 18 17 16 15 15 15 14 15 15 16 17 18 18 19 20 22 22 20
20 19 19 20 22 23 23 24 24 24 24 23 23 23 23 23 23 23 24 24 24 24 23 23 23 22 22 21 21 21 21 21 21 22 23 23 24 24 25 25 25 25 25 25 25 25 24 24 24 23 23 23 23 23 22 22 21 20 19 18 18 19 21 23 24 24 22 20 18 18 17 17 16 16 15 15 16 17 19 21 21 22 22 22 22 20
18 18 19 20 20 22 23 24 25 25 25 24 23 23 23 24 24 24 25 25 25 25 25 25 25 25 24 24 23 22 22 22 23 24 24 25 26 26 26 26 27 27 27 27 27 27 26 26 25 25 24 24 23 23 22 22 21 20 19 18 19 21 23 25 25 24 21 20 19 19 18 18 17 16 15 14 14 16 19 22 24 24 23 23 21 21
18 18 18 18 18 18 19 22 25 26 26 25 23 22 21 21 23 24 26 26 27 27 27 26 26 26 26 26 25 24 24 24 24 25 25 26 27 27 27 27 28 28 28 28 28 28 28 27 26 26 25 25 24 23 23 22 21 20 19 19 20 23 26 27 26 24 21 20 19 20 19 19 18 17 15 13 13 14 18 21 22 23 23 22 21 21
20 19 18 18 18 17 16 18 22 25 26 25 25 23 21 19 19 20 21 23 25 27 27 26 26 26 27 27 26 25 24 25 25 26 26 27 27 27 28 28 28 29 29 29 29 28 28 27 27 26 26 25 24 23 23 23 22 20 19 20 22 25 27 28 26 24 21 20 20 21 20 20 19 18 16 14 12 13 16 19 21 21 21 22 22 22
20 19 19 18 18 18 18 19 21 24 25 24 25 25 24 21 19 17 17 18 20 23 24 25 25 25 25 26 26 25 23 23 24 24 25 25 26 26 27 28 28 29 29 29 29 28 28 27 27 26 26 25 24 24 23 23 22 21 20 22 24 27 29 28 26 24 21 21 21 21 21 21 20 18 17 15 14 14 16 18 20 21 21 22 22 23
18 18 17 17 16 16 19 21 23 24 23 20 18 17 20 21 20 18 17 17 17 18 20 22 23 24 24 23 23 23 21 21 21 22 22 23 24 25 25 26 27 28 28 28 28 28 28 27 27 26 26 25 25 24 24 23 22 22 21 23 26 28 29 28 26 24 22 22 22 22 22 22 21 20 18 17 16 15 16 18 20 21 21 22 22 23
18 17 16 15 15 16 18 19 20 20 19 17 15 14 16 18 19 19 19 19 19 18 18 19 21 23 24 23 22 21 20 20 20 21 21 22 22 23 23 24 25 26 26 27 28 28 28 27 26 26 25 25 24 24 24 23 22 22 22 24 27 28 29 28 26 24 23 23 23 23 23 22 22 21 19 18 17 17 18 19 20 21 22 22 22 22
17 17 17 16 16 17 17 17 17 16 16 17 18 18 18 18 18 19 19 20 21 20 19 18 18 20 23 23 22 21 20 20 20 21 21 22 22 23 23 23 24 24 25 25 26 27 27 26 26 26 25 25 24 24 24 23 23 23 23 25 27 28 29 28 27 25 24 24 24 23 23 23 22 21 20 20 19 19 19 20 21 22 23 23 23 22
17 16 14 14 15 16 17 17 18 19 19 19 20 21 21 20 20 19 18 18 19 19 17 17 17 18 20 21 22 21 19 19 19 19 20 21 21 21 21 22 23 24 24 24 25 26 26 25 25 25 25 24 24 24 24 24 24 25 26 27 28 29 29 29 27 26 25 24 24 24 23 22 22 21 21 20 21 21 21 21 22 23 24 25 25 24
18 16 13 12 14 16 17 17 17 18 19 19 20 21 21 20 20 19 18 18 17 16 14 14 14 14 16 18 18 18 17 17 17 17 17 18 19 19 18 18 20 21 23 24 24 25 25 25 25 25 25 24 23 23 24 25 26 28 29 29 30 30 30 30 28 27 25 25 24 24 23 22 21 21 21 21 21 22 22 22 22 23 24 25 26 26
18 17 15 13 13 15 16 18 18 18 18 18 20 20 20 20 20 20 19 18 16 15 14 12 8 6 8 12 14 15 14 15 15 15 14 15 16 17 16 16 17 19 20 22 23 24 24 24 24 25 25 24 23 23 23 25 27 29 31 31 32 31 31 30 28 27 26 25 24 24 23 22 21 21 21 21 22 22 23 23 23 23 24 25 26 27
18 18 18 17 16 16 16 17 18 19 17 18 20 21 22 22 22 21 20 18 16 15 15 14 10 6 4 7 9 10 12 12 13 13 12 13 15 15 14 14 15 17 18 20 22 23 23 23 23 24 25 24 23 23 23 25 27 30 32 32 32 32 31 29 28 26 26 25 24 23 23 22 21 21 21 21 21 22 23 23 24 24 24 25 26 26
18 19 19 19 18 16 15 16 17 17 17 17 19 20 20 22 22 21 20 20 19 18 16 14 13 12 12 12 12 11 11 11 12 12 11 11 13 14 14 13 14 15 17 18 19 20 21 22 23 24 24 24 24 23 24 25 27 30 31 32 32 31 29 28 27 26 25 25 24 23 22 22 21 21 21 21 21 22 23 24 24 24 24 25 25 25
19 20 19 18 18 17 18 19 18 18 19 20 21 21 21 21 21 21 20 20 20 20 18 16 15 16 17 16 15 13 13 12 12 12 11 11 13 14 14 13 13 14 16 17 18 19 20 20 21 22 23 23 23 23 24 25 27 30 31 31 30 29 28 26 25 25 25 24 24 23 22 22 21 21 20 21 21 23 24 25 25 24 24 24 24 23
20 21 22 20 19 19 17 16 15 16 18 19 20 21 20 20 20 20 20 20 20 20 18 17 18 18 18 17 16 16 16 15 14 13 11 10 12 14 15 13 12 13 15 16 17 17 18 19 20 21 22 22 22 23 24 26 27 29 30 29 28 27 26 25 25 25 25 25 24 23 22 21 21 21 20 21 22 24 25 25 25 24 24 24 23 22
22 23 23 22 21 20 18 17 16 16 17 18 19 20 19 19 19 19 20 20 20 20 20 21 21 21 20 18 18 19 19 18 17 14 10 8 10 12 14 12 12 12 13 14 15 15 15 17 20 21 22 22 22 23 24 26 27 28 28 28 27 26 25 25 25 25 25 25 24 23 22 21 21 21 21 21 23 25 25 25 24 24 23 23 22 22
23 22 22 22 22 23 23 22 22 22 22 21 21 21 20 20 20 20 20 21 22 22 22 22 22 22 21 21 21 22 22 21 19 16 11 8 8 11 12 11 11 11 13 13 13 13 14 17 20 22 23 23 23 23 24 25 26 26 27 26 26 26 25 25 26 26 26 26 25 23 22 22 22 22 22 22 24 25 25 24 24 23 23 22 22 21
23 23 23 23 22 23 23 24 24 24 23 22 22 22 22 23 23 22 22 22 23 24 24 23 21 20 21 22 23 23 24 23 21 18 13 10 10 11 11 11 11 11 12 13 12 12 13 16 20 23 24 24 24 24 25 25 26 26 26 26 26 26 26 27 27 27 27 27 25 24 22 22 22 23 23 23 24 24 24 24 23 23 22 21 20 20
23 23 22 22 22 22 22 23 23 23 23 22 22 22 22 23 24 24 23 21 21 21 20 18 16 15 15 18 20 22 24 25 23 20 14 12 11 12 12 13 12 11 11 12 13 12 13 15 18 22 25 26 27 27 26 26 26 26 27 27 27 28 28 29 29 29 29 28 26 24 23 23 23 24 24 24 24 24 24 23 22 22 21 20 19 18
25 25 24 24 24 24 24 24 24 24 23 23 22 22 22 22 22 22 21 19 18 17 15 13 12 12 14 14 15 18 22 25 25 23 18 13 11 12 14 15 14 13 12 13 13 13 13 15 17 20 23 26 28 28 28 28 28 28 28 28 29 30 30 31 31 31 30 29 27 25 24 24 24 24 24 24 24 23 22 22 21 20 19 18 17 16
27 27 27 27 27 26 26 25 25 24 24 24 23 22 21 20 20 19 18 17 16 15 14 10 8 9 12 13 14 16 19 23 26 25 22 16 12 11 14 17 16 15 14 14 14 14 14 15 17 19 22 24 27 28 29 29 29 29 30 30 30 31 32 32 32 32 31 29 27 26 25 24 24 24 24 23 23 22 21 20 19 17 16 16 15 15
26 26 27 27 27 27 26 24 23 22 22 23 23 23 22 21 20 18 16 16 16 16 15 11 7 6 7 10 13 16 18 21 24 26 24 18 13 12 14 17 17 15 14 13 14 15 15 16 17 19 21 23 25 27 28 29 30 31 31 32 32 33 33 33 33 33 31 30 28 26 25 25 24 24 24 23 22 20 19 18 17 16 15 15 15 15
21 21 22 23 23 23 21 20 19 19 19 20 20 21 22 23 22 21 19 18 17 16 16 15 13 11 9 11 12 14 16 19 23 26 25 19 14 13 15 17 17 16 14 10 10 12 15 18 19 20 20 22 24 26 26 27 29 31 32 33 33 34 34 34 34 33 32 30 28 26 25 25 24 24 23 22 21 19 18 17 16 16 16 16 17 17
16 16 17 18 18 18 17 16 15 16 17 18 19 20 21 22 24 23 22 20 18 17 17 17 16 15 13 9 7 8 12 18 23 26 24 19 14 13 15 16 17 17 16 10 5 4 9 15 19 21 21 22 23 25 26 25 28 31 32 33 33 34 35 35 34 33 32 29 27 26 25 24 24 23 22 21 20 19 18 17 17 18 18 18 18 18
18 18 18 19 18 18 18 17 16 16 16 17 18 19 20 21 22 22 21 21 20 19 17 16 16 16 15 7 3 3 6 15 22 26 25 19 15 14 17 16 16 18 18 14 5 1 2 7 14 20 22 22 23 25 26 25 26 29 32 33 33 33 33 34 34 33 31 29 27 26 25 24 23 23 22 21 20 19 18 18 19 20 20 19 19 19
22 22 20 20 19 18 17 16 16 15 16 16 17 18 19 20 21 21 21 21 22 21 19 17 16 16 16 12 9 7 7 14 21 25 26 21 17 17 19 17 16 17 20 19 12 6 3 2 6 13 20 23 24 26 27 26 26 28 32 33 33 32 31 32 32 32 30 29 27 26 25 24 23 22 22 21 20 20 19 20 20 21 21 20 20 20
23 23 22 21 19 17 16 16 16 16 16 16 17 18 19 20 21 21 21 22 23 23 22 20 18 16 17 18 17 15 15 17 20 24 26 23 18 16 18 17 16 16 19 20 18 14 7 4 4 7 14 21 25 26 28 27 26 28 31 33 33 32 30 30 31 30 29 28 27 25 24 23 23 22 22 21 21 20 20 21 21 21 21 21 21 21
25 25 25 23 22 21 20 19 18 18 17 18 18 18 19 20 21 22 22 22 23 23 24 24 22 20 18 17 16 17 18 19 21 22 24 24 20 17 18 18 16 15 16 17 17 15 10 9 7 5 8 17 23 26 28 28 27 28 30 32 33 33 31 30 30 30 29 28 27 26 24 24 23 22 22 22 21 21 21 21 21 21 21 21 21 21
25 25 25 25 24 23 22 21 20 19 19 19 19 19 19 20 21 22 22 23 23 23 25 26 26 25 22 19 16 16 17 20 22 23 24 25 23 19 18 18 18 17 16 15 15 13 9 10 10 8 7 11 16 23 28 29 28 28 30 31 33 33 33 32 32 31 30 29 28 27 26 25 24 23 23 23 22 22 22 21 21 20 20 20 20 20
22 23 23 23 22 21 20 19 18 18 18 18 18 18 19 20 21 22 23 23 24 24 25 27 28 28 28 26 22 20 20 21 23 25 26 27 26 23 19 19 20 20 18 17 16 14 11 10 11 11 9 8 10 15 23 29 29 28 29 30 31 32 33 33 33 32 32 30 30 29 28 27 26 25 25 24 23 23 22 21 21 20 19 19 19 19
16 17 17 18 18 17 17 17 17 16 16 18 18 18 18 19 20 22 23 23 24 25 26 27 28 29 29 30 30 28 25 24 24 26 28 30 30 27 24 21 22 23 21 18 17 16 14 11 11 11 10 9 9 11 17 26 28 27 28 29 30 30 32 33 34 33 32 32 32 31 30 29 28 27 26 24 24 23 22 21 20 19 19 18 18 18
12 13 15 15 15 15 16 16 16 16 16 16 17 18 19 20 20 21 23 24 26 27 28 28 28 28 29 31 33 34 32 29 28 28 30 31 32 31 28 25 24 25 25 22 20 19 17 12 9 7 8 11 11 13 17 23 25 26 26 28 30 30 31 32 33 33 32 32 32 32 31 31 30 29 27 26 25 24 22 21 20 19 18 17 17 16
13 14 15 16 16 16 16 16 16 17 17 18 19 20 20 21 22 22 24 26 27 27 28 28 27 27 28 30 33 34 35 33 31 30 31 32 33 34 32 28 26 26 27 25 23 21 20 16 13 10 8 10 11 13 17 22 25 26 26 26 27 28 29 31 32 33 32 32 32 32 32 32 31 30 29 28 27 25 24 22 21 20 19 19 17 16
15 16 17 17 17 17 17 17 18 19 20 22 23 22 21 21 22 22 24 26 27 27 26 25 25 26 27 29 31 33 34 34 33 32 32 33 35 35 34 30 28 27 27 26 24 22 21 20 19 17 16 14 13 13 15 19 25 28 27 22 20 22 27 30 32 32 32 32 31 32 32 32 32 32 31 29 27 26 25 25 23 22 21 21 20 18
17 18 19 19 19 19 19 19 20 22 23 24 23 21 21 20 20 21 23 25 27 27 26 25 23 24 26 27 29 31 32 32 32 32 33 34 36 36 35 32 30 28 28 27 25 23 23 21 20 18 17 17 16 16 16 19 24 28 28 23 21 22 26 29 31 31 31 31 31 32 32 33 33 32 30 28 27 27 27 27 26 24 22 22 21 19
17 18 19 18 19 19 20 21 22 23 24 23 22 21 21 19 19 19 19 21 24 25 26 23 22 22 25 28 30 31 31 31 31 32 33 35 36 37 37 34 31 29 28 27 25 23 23 23 21 19 18 18 17 15 15 18 22 26 28 26 24 23 23 27 30 31 31 30 31 31 32 33 33 32 29 28 28 29 29 29 28 26 24 23 22 20
16 17 18 19 19 20 21 21 21 22 22 22 21 21 21 20 19 19 19 19 19 20 19 20 20 20 21 23 26 29 31 31 31 31 32 34 36 38 38 35 33 31 29 26 24 23 23 23 22 20 20 20 19 17 16 16 19 23 26 27 25 21 15 21 28 31 30 30 30 31 32 34 34 33 31 29 29 30 30 29 28 26 25 25 24 22
16 17 18 19 20 21 21 21 20 20 20 20 20 20 19 19 18 18 17 17 17 17 17 18 18 18 19 19 20 23 27 29 30 30 31 33 35 37 38 36 34 32 31 28 25 22 21 21 21 21 21 21 20 18 17 17 18 21 24 27 27 24 20 22 27 31 30 29 30 31 33 34 35 34 32 30 30 31 31 30 29 27 26 25 25 23
16 17 18 18 18 18 18 18 17 17 16 16 15 15 16 16 16 16 16 16 17 18 17 18 18 17 16 16 17 18 20 24 27 28 30 31 33 35 37 36 34 32 31 30 28 25 22 21 20 20 20 20 20 18 17 18 19 20 22 25 26 25 25 27 30 32 31 29 29 31 33 35 35 33 30 29 29 31 31 31 30 28 27 26 24 23
16 17 17 17 17 16 16 16 15 14 13 14 15 16 16 17 16 16 16 17 18 18 18 18 18 16 14 14 15 15 15 17 20 24 27 29 31 33 34 34 33 31 31 30 29 28 26 24 23 21 20 19 18 18 18 18 19 20 21 23 23 23 23 24 28 32 33 30 29 30 33 35 34 32 29 27 28 29 30 31 30 29 29 27 25 23
16 17 17 17 16 16 16 17 16 16 16 17 18 19 19 18 18 17 17 18 18 18 18 19 19 18 16 15 15 15 14 14 16 19 24 27 28 30 32 31 30 29 29 28 27 26 26 26 25 24 22 19 16 15 17 19 20 20 21 23 23 22 21 23 27 31 33 32 30 31 33 34 33 30 28 27 27 28 29 30 30 30 29 28 26 24
16 17 17 17 17 18 18 18 17 17 17 18 18 19 18 18 18 17 17 18 19 19 19 18 17 16 15 16 16 17 16 16 16 17 20 23 25 27 28 27 26 25 25 25 24 23 23 23 24 25 24 21 17 15 15 18 20 21 22 24 23 22 22 24 27 30 31 31 31 32 34 34 32 29 27 26 26 26 27 29 30 30 29 28 26 25
16 16 16 17 17 17 17 17 17 16 17 17 17 17 17 17 17 17 17 17 18 18 17 16 15 14 14 14 16 17 17 16 16 17 18 20 22 23 24 24 23 21 21 20 20 19 20 20 21 23 23 22 19 17 17 18 20 22 23 24 23 22 21 23 26 29 30 31 31 33 34 34 33 32 29 26 24 23 25 27 29 30 29 27 26 25
15 16 16 16 16 17 17 17 17 16 16 16 17 17 17 17 17 16 17 17 17 17 16 16 16 15 14 14 16 17 17 16 15 15 16 18 20 21 21 21 20 19 17 15 14 14 14 14 16 19 22 21 19 18 18 19 20 21 22 23 23 22 21 22 25 28 30 31 31 32 33 32 32 31 29 26 23 22 23 25 28 30 30 28 26 25
16 16 16 16 16 17 17 17 17 17 17 17 17 17 17 16 16 16 16 15 16 16 17 18 17 16 15 15 16 16 15 15 15 15 16 17 19 20 20 20 20 18 15 11 9 8 8 7 7 10 15 19 20 19 20 21 21 20 19 21 22 22 21 21 24 28 30 31 31 32 31 30 29 29 28 26 23 21 21 22 25 29 31 29 27 26
Wind_Direction
255 258 263 266 268 269 270 272 272 272 272 272 272 271 270 270 270 269 268 266 264 261 258 256 254 252 252 251 251 250 250 251 252 253 254 254 254 253 253 252 252 251 251 251 251 251 251 250 250 249 248 247 246 247 247 248 248 247 245 242 240 238 237 238 239 240 241 243 242 240 238 235 233 232 232 232 232 232 232 231 229 227 224 222 214 203
256 256 257 259 262 263 266 269 271 271 271 271 270 268 267 266 265 265 265 265 263 261 257 254 252 250 249 248 248 248 249 250 251 252 253 253 253 253 252 252 251 250 250 250 250 250 251 251 251 251 250 250 250 250 250 250 247 244 240 237 235 234 233 233 233 234 236 238 238 236 234 233 233 232 232 231 230 229 227 224 223 221 217 211 202 193
259 256 255 255 257 259 263 268 271 272 271 269 267 265 263 262 261 262 262 261 261 259 256 253 250 248 247 247 247 248 249 250 252 253 254 255 255 254 253 252 251 250 250 250 250 250 251 252 253 253 254 254 255 256 256 253 247 241 236 233 231 230 230 229 229 230 232 232 230 229 229 230 230 229 228 226 224 222 219 217 216 214 209 203 196 189
261 257 256 256 257 258 262 266 270 271 270 267 264 262 260 259 258 259 260 259 259 258 256 254 251 250 249 249 250 250 251 253 254 255 256 256 256 256 255 254 252 251 251 251 251 251 252 253 254 255 257 258 260 261 261 257 250 241 234 230 228 227 227 228 228 228 227 226 224 224 225 225 225 224 222 221 219 216 213 211 209 206 200 198 193 186
261 257 257 257 257 258 263 266 269 269 267 263 260 258 256 255 256 257 258 258 258 257 257 256 255 254 253 253 253 253 253 254 255 255 256 256 256 256 256 255 254 253 252 252 252 252 253 254 255 256 258 260 262 263 263 260 253 242 233 228 225 225 228 231 232 230 227 225 224 223 222 221 220 219 219 219 218 215 211 208 206 203 198 194 189 184
262 259 258 258 258 260 263 266 267 266 263 259 256 254 253 253 253 254 255 256 257 257 256 256 256 256 256 255 255 255 254 254 254 255 256 256 256 256 256 255 255 254 253 253 253 253 254 254 255 257 258 260 262 263 262 259 252 242 232 226 224 227 231 235 234 232 228 226 223 222 220 218 217 218 219 220 219 217 213 209 205 203 200 194 188 184
263 260 259 258 258 260 262 264 265 264 261 257 254 251 250 250 251 252 253 254 255 256 256 256 255 255 255 255 255 255 255 255 255 256 256 256 257 257 256 256 256 255 255 254 254 254 254 255 256 257 258 259 259 260 259 256 249 239 229 224 224 229 233 235 233 230 227 224 222 219 217 216 217 219 221 221 220 216 212 209 206 203 201 196 191 188
263 261 259 257 256 257 259 261 262 262 259 255 252 250 249 249 250 251 253 254 256 256 257 257 256 255 254 254 254 255 256 257 258 258 258 258 258 258 258 257 257 256 256 256 256 255 255 256 256 256 256 256 256 255 254 251 245 235 225 222 224 229 231 231 230 228 225 223 219 216 214 215 217 221 223 222 219 213 208 205 203 202 201 198 195 191
262 263 261 257 254 254 257 260 262 262 260 255 250 248 249 250 252 253 255 256 257 258 259 259 259 258 257 255 254 255 257 258 259 260 260 259 259 259 259 259 258 258 257 257 257 256 256 256 255 255 254 253 252 251 249 246 240 232 223 222 225 228 228 227 226 225 224 221 216 212 211 214 218 221 223 221 215 207 200 196 195 195 196 195 193 190
262 263 263 260 256 254 255 259 263 264 262 257 252 248 247 250 253 256 258 258 259 260 261 261 261 261 261 259 258 257 258 259 260 260 260 260 259 259 259 259 259 258 258 258 257 257 256 255 254 252 251 250 248 246 244 242 236 229 224 224 226 227 226 225 224 224 223 220 215 210 209 212 217 221 222 218 212 203 195 187 183 182 182 183 183 182
263 262 261 261 259 256 253 255 258 260 260 257 253 250 248 247 249 253 257 259 259 260 261 261 261 262 263 264 264 262 261 260 259 259 258 258 258 258 258 258 257 257 257 256 256 255 254 253 251 250 248 246 244 242 240 237 233 228 224 226 227 226 224 223 223 224 223 220 215 210 209 211 215 219 220 217 213 206 198 189 181 175 172 172 173 175
265 264 262 261 259 256 254 251 251 253 253 251 250 251 251 250 248 248 251 256 258 259 260 262 263 263 264 266 267 267 265 263 260 259 257 256 256 255 256 256 255 255 255 254 253 252 251 250 248 246 244 243 241 239 236 234 230 226 224 226 227 225 223 222 222 223 223 220 216 212 210 211 214 216 217 217 215 211 207 200 192 184 178 175 175 176
268 267 265 263 260 257 254 244 239 239 241 241 242 247 251 251 249 247 247 251 254 256 257 260 263 265 267 268 269 270 269 267 264 262 261 258 257 255 255 255 254 254 253 252 251 250 248 246 244 243 241 240 238 235 233 230 228 225 225 226 226 225 223 222 222 223 223 221 217 214 212 212 214 215 216 216 216 215 214 210 205 198 192 187 184 184
269 268 267 264 261 256 249 240 233 231 234 236 240 244 248 250 249 247 246 249 252 253 253 255 260 264 268 269 270 270 270 269 269 268 266 262 259 257 255 255 254 253 252 251 250 248 246 243 241 240 239 238 236 232 229 227 226 226 226 227 226 225 224 224 223 223 223 221 218 216 214 214 214 215 215 216 218 218 217 216 213 208 204 199 196 194
269 269 265 260 256 252 247 239 238 240 239 238 238 241 244 247 247 245 242 246 249 250 249 251 256 262 266 268 269 270 269 267 266 266 265 264 261 259 257 256 255 254 253 251 249 248 245 241 239 238 237 236 234 230 226 224 225 226 227 227 226 226 225 224 224 223 223 221 219 216 214 215 215 215 215 216 218 219 219 218 217 215 212 208 205 203
269 268 264 258 254 252 249 244 241 239 239 238 237 237 238 242 244 242 239 241 242 241 240 245 253 261 264 265 266 265 262 259 256 256 257 260 262 260 258 255 254 254 254 251 249 246 243 240 237 236 235 235 233 230 225 223 224 225 227 226 225 224 223 223 223 222 222 220 218 215 214 214 215 215 216 216 217 218 219 220 220 220 218 216 214 211
269 268 266 264 260 257 255 251 247 242 239 238 237 236 236 239 240 239 235 234 232 232 233 236 243 257 263 264 262 257 250 245 244 246 250 256 260 261 259 255 253 253 254 251 248 245 242 238 236 234 234 233 232 229 226 223 224 224 225 224 222 221 220 220 220 221 220 219 216 214 212 213 214 215 215 215 216 218 219 220 222 222 223 222 220 218
268 266 266 266 267 266 262 257 252 248 243 241 240 240 239 239 239 237 233 230 228 229 233 236 236 238 248 257 257 249 237 231 232 237 245 253 259 261 260 256 254 253 253 252 249 245 241 237 234 232 231 230 229 227 225 223 223 223 222 220 218 217 216 217 218 219 219 217 214 212 211 211 212 213 214 215 216 218 220 221 222 223 224 223 222 220
267 265 265 266 268 269 267 262 257 252 247 242 241 241 240 239 237 235 232 231 231 231 232 232 233 236 241 247 248 243 232 226 226 232 240 249 256 259 260 257 256 255 254 253 250 245 240 236 234 232 231 228 226 224 223 223 223 221 219 217 214 213 213 215 216 218 217 215 212 210 210 210 211 212 213 215 217 219 221 221 222 222 222 221 220 219
268 265 264 267 270 272 270 266 261 255 250 245 242 239 236 235 233 232 231 230 231 231 230 230 231 235 240 243 242 237 231 228 226 228 236 246 254 257 259 257 257 257 257 255 252 247 240 234 231 231 230 226 222 220 221 221 221 220 217 215 213 212 212 214 216 217 217 214 211 209 209 210 210 211 212 215 218 220 221 221 220 219 219 218 217 216
268 266 264 266 270 272 272 271 268 264 259 251 242 235 232 232 232 231 230 229 229 229 227 227 230 234 236 237 238 237 233 229 224 223 233 245 252 255 257 256 255 255 257 258 257 250 239 230 228 229 228 224 220 219 220 220 220 218 215 214 213 212 213 215 217 217 216 213 210 209 208 209 210 211 212 214 217 219 220 219 217 216 215 214 213 212
266 266 266 267 269 272 276 281 286 287 283 271 256 243 236 234 233 231 229 227 226 225 225 229 233 235 235 235 237 238 237 234 226 222 228 243 249 249 250 251 250 250 253 259 259 252 238 227 223 224 225 223 221 219 220 220 219 217 216 215 214 214 215 216 217 217 215 212 210 208 208 208 209 211 213 214 216 217 217 216 215 213 212 211 211 211
263 265 267 267 268 269 271 276 282 287 289 284 272 258 250 243 239 235 231 227 226 226 227 228 231 233 235 236 237 238 238 236 231 225 224 235 244 242 239 239 241 244 249 256 259 254 239 226 221 221 223 223 222 221 221 221 220 219 218 218 217 217 217 217 217 216 214 212 210 208 207 207 208 210 212 214 215 215 214 214 213 212 211 211 212 213
260 262 264 265 265 266 267 269 272 277 283 287 285 278 267 258 251 246 242 235 231 229 227 227 229 233 234 234 234 235 237 235 231 224 221 232 241 239 232 228 229 236 245 252 256 253 243 231 224 220 220 221 222 223 223 222 222 222 222 221 220 219 219 218 217 215 213 211 209 208 207 207 208 210 212 214 214 213 213 213 213 213 213 214 216 218
258 258 260 262 263 264 266 266 268 272 277 282 285 285 282 274 265 257 251 244 236 229 224 222 224 228 230 230 230 231 233 234 229 222 218 230 238 236 229 225 223 226 236 247 252 251 245 237 230 224 220 219 220 222 223 223 223 223 223 222 221 220 218 217 215 213 212 210 209 208 207 208 209 210 212 212 212 212 212 213 214 215 216 218 220 222
259 259 261 262 263 265 266 268 269 271 273 275 275 277 279 279 274 267 258 248 237 227 220 217 220 225 226 225 226 228 229 231 227 222 219 226 234 234 228 225 222 222 229 241 246 247 244 241 236 230 225 221 219 220 221 222 222 222 221 220 219 218 216 214 213 211 210 209 208 207 207 208 209 210 210 211 212 212 212 213 215 217 218 220 221 221
262 261 262 262 263 264 266 267 269 270 271 270 269 267 266 268 267 262 254 246 236 226 220 221 224 226 226 225 225 225 224 226 226 224 222 225 231 234 228 225 222 219 223 233 239 242 241 240 238 234 230 224 220 218 218 219 220 220 219 217 216 215 213 211 210 209 208 208 207 207 207 207 208 209 210 210 211 211 212 214 215 216 217 216 214 213
264 262 260 260 261 262 263 264 266 267 268 269 268 265 260 255 253 251 247 243 235 227 224 225 225 224 224 224 223 221 219 222 225 225 223 223 229 235 228 224 220 215 214 222 233 238 238 238 237 236 233 228 222 217 215 215 217 218 217 215 213 211 210 208 208 207 207 206 206 206 206 206 207 208 209 209 210 211 212 212 212 210 208 206 204 201
266 263 262 263 264 265 265 264 265 266 266 268 271 270 264 255 249 246 247 245 237 229 228 228 228 227 227 222 217 215 218 221 225 225 221 220 228 234 227 220 214 208 203 206 221 232 235 236 236 235 233 229 224 218 213 211 212 213 213 211 210 209 207 206 206 206 206 205 205 205 205 206 206 206 207 208 209 209 209 207 203 200 198 198 197 194
273 273 274 276 276 277 278 277 275 272 269 270 274 276 274 266 257 251 250 247 239 231 231 230 228 226 224 215 208 211 219 222 225 224 219 215 221 229 224 216 209 204 197 189 187 221 232 235 235 234 233 230 224 217 211 206 206 206 205 204 204 204 204 204 204 205 205 204 204 204 204 205 205 205 205 206 207 207 204 200 196 193 193 194 194 193
281 281 281 281 282 282 283 283 281 277 274 273 274 276 277 275 269 264 261 255 248 241 237 232 227 222 216 207 193 204 220 220 222 222 217 211 216 224 219 212 208 205 200 193 178 88 219 232 231 231 231 228 224 217 209 202 199 199 199 197 196 196 198 200 201 203 203 204 204 204 204 203 203 203 203 203 203 202 199 195 193 192 192 192 191 191
280 280 278 278 279 279 279 278 276 275 273 271 270 271 271 272 271 270 268 265 260 255 249 243 235 225 216 212 212 218 225 218 220 220 215 212 217 222 219 213 209 207 205 201 198 194 186 186 211 218 222 223 221 216 209 200 195 194 194 193 191 192 193 196 197 198 199 201 202 203 203 203 202 201 200 200 200 198 194 192 192 193 193 191 190 190
280 279 278 278 278 278 276 274 274 272 271 269 267 265 265 264 264 264 264 263 262 260 258 254 248 239 230 224 223 225 227 223 222 221 216 213 215 219 217 214 210 207 205 204 205 205 199 181 173 194 209 213 215 214 208 201 194 192 192 191 190 190 190 192 193 193 194 195 197 199 200 200 200 199 198 197 196 194 191 192 193 195 194 193 191 189
278 278 277 277 277 277 276 275 273 272 271 270 268 265 262 260 259 258 258 258 257 257 256 255 254 250 244 238 234 231 229 226 225 224 220 213 212 215 214 212 208 204 200 201 203 204 201 189 173 168 193 203 208 210 208 202 196 191 190 190 190 189 188 189 190 190 190 190 191 192 193 194 194 194 194 194 193 191 190 192 195 197 197 196 194 192
273 273 273 274 274 275 274 273 272 271 271 270 269 267 263 260 257 255 254 254 253 253 252 253 252 251 248 245 242 239 236 229 227 226 224 216 213 213 213 211 208 203 198 199 200 198 191 186 179 169 165 185 199 206 207 204 198 192 190 190 191 191 190 189 189 189 189 188 188 188 188 188 188 188 188 189 189 189 190 193 196 199 199 199 198 197
268 268 268 269 270 270 270 270 270 270 271 270 270 269 266 263 259 255 253 252 252 252 252 252 252 251 249 247 245 244 243 237 232 229 227 222 218 215 212 213 210 205 200 200 200 198 194 188 184 178 167 166 185 202 206 205 200 193 189 188 190 191 192 192 191 190 189 188 187 187 187 186 185 185 186 187 188 188 189 192 195 199 200 200 201 203
270 269 269 268 268 268 268 269 270 270 270 271 272 271 269 266 262 258 255 252 252 253 253 253 253 252 251 251 250 248 248 245 239 234 230 226 222 217 214 215 212 207 202 200 199 199 198 193 190 188 185 182 181 190 199 203 201 196 190 187 187 189 191 193 193 192 190 189 189 189 188 187 185 184 184 185 185 186 187 190 194 199 201 201 202 205
275 274 273 271 269 268 269 270 269 269 269 270 271 272 272 270 267 263 260 257 255 255 255 254 253 252 252 254 254 253 251 247 242 237 231 227 223 219 216 215 213 210 207 203 199 196 194 193 190 192 201 201 196 189 190 195 198 197 193 189 187 187 189 191 193 193 192 191 191 190 190 188 186 184 183 182 182 183 184 187 191 195 197 199 201 204
274 272 271 269 268 266 267 267 267 268 270 272 273 274 275 274 271 267 265 262 259 256 254 253 252 253 254 255 256 255 252 246 242 237 233 228 224 220 216 213 212 211 210 207 202 198 196 196 197 198 200 201 197 192 189 190 193 194 193 190 188 187 188 190 191 192 192 191 190 189 189 188 186 184 182 181 181 181 182 184 186 189 191 192 194 197
273 271 270 269 267 265 264 264 266 269 272 275 277 277 276 275 272 269 267 266 264 260 255 252 253 256 258 258 257 255 251 246 242 239 235 230 226 222 218 214 212 211 209 206 203 201 199 201 203 203 199 197 194 189 186 188 191 191 189 188 190 190 188 188 189 191 192 191 190 188 187 187 185 184 183 182 181 182 182 183 183 185 186 187 185 185
271 271 271 270 269 268 266 265 267 270 273 275 275 275 274 273 271 269 268 268 267 265 260 257 257 259 259 258 257 256 251 246 243 240 237 232 228 224 219 216 214 211 208 205 203 202 202 204 205 204 201 198 193 188 186 188 189 189 186 187 190 191 189 188 188 189 190 191 190 189 188 187 185 184 183 183 184 186 186 185 184 183 185 187 185 181
271 271 272 271 270 269 268 269 269 270 271 271 271 270 270 269 267 266 265 265 264 263 260 259 259 260 260 259 258 256 252 248 245 242 238 234 230 225 221 217 215 212 208 203 201 201 203 204 204 202 200 197 192 188 188 189 190 189 189 189 188 187 188 189 188 187 188 189 190 189 188 187 186 185 184 184 186 188 190 189 187 185 185 187 188 187
270 271 273 273 273 272 272 271 270 269 268 267 266 265 265 263 260 258 258 257 257 257 257 259 260 260 259 257 257 256 253 250 246 241 236 233 229 225 221 218 215 211 207 202 199 201 202 203 204 203 200 195 191 187 186 186 187 190 191 190 185 180 181 190 190 188 187 188 188 188 188 187 186 186 185 186 187 189 190 190 189 189 188 190 190 190
271 273 274 275 276 275 274 270 267 265 263 261 261 261 262 261 261 262 262 262 262 263 264 264 264 262 257 254 254 254 253 250 245 238 231 228 226 224 221 217 214 211 208 202 198 197 199 201 203 203 199 194 191 188 187 184 185 188 191 190 187 185 186 189 188 187 185 186 187 188 188 188 186 185 185 185 187 189 190 190 190 191 192 194 195 195
273 275 276 276 275 273 270 267 264 262 262 262 263 265 267 268 269 270 270 271 271 270 268 266 264 260 254 251 250 249 249 247 242 234 226 222 221 220 218 215 212 210 208 205 202 199 197 197 199 199 196 193 191 189 187 184 184 186 189 190 191 192 193 191 188 186 184 184 185 187 188 187 185 183 182 184 186 188 189 190 190 191 194 196 198 199
275 277 277 276 273 272 272 272 273 275 276 278 278 277 276 274 272 270 269 269 269 268 265 261 256 252 248 247 247 247 246 242 238 232 225 219 217 215 214 212 211 209 206 205 204 203 201 199 196 192 190 189 190 191 190 186 183 184 187 188 190 191 191 190 189 188 186 185 185 186 186 185 183 181 180 182 185 187 189 190 191 192 194 196 198 199
278 278 278 277 276 275 277 279 281 282 281 279 277 275 272 269 267 265 264 263 262 259 257 255 251 246 242 242 244 246 243 238 234 231 226 220 216 213 211 210 209 207 205 203 202 203 204 203 199 193 187 184 186 190 191 188 185 184 184 186 186 186 186 187 189 189 188 187 185 184 184 182 180 179 180 181 183 186 189 191 193 194 196 197 198 199
279 278 277 277 277 277 277 277 277 276 274 273 271 269 267 264 263 262 262 260 256 253 251 250 246 241 239 240 244 246 244 239 233 228 225 220 216 212 209 207 205 203 201 199 199 200 201 201 199 195 191 188 186 186 186 187 187 186 185 185 185 185 185 187 189 189 189 188 186 184 182 180 179 178 178 179 180 184 187 190 193 196 197 197 198 199
279 277 276 276 276 276 275 275 273 271 270 269 269 268 266 263 262 261 260 259 257 256 254 250 245 241 238 239 243 245 244 238 232 226 221 216 212 208 204 201 198 194 192 191 191 191 192 193 194 194 194 192 190 188 184 185 186 186 185 185 185 185 185 187 188 188 187 187 186 185 183 182 182 181 178 176 177 180 184 188 191 195 197 198 198 200
281 278 276 275 274 273 273 273 272 270 269 268 268 267 266 265 262 259 256 255 257 258 258 254 250 245 241 242 244 244 241 233 226 221 215 210 206 201 196 192 187 181 176 174 173 173 175 178 185 191 194 194 193 190 185 182 183 184 184 185 186 186 185 184 186 186 186 186 185 184 183 183 183 182 179 176 176 178 181 185 189 193 195 197 198 200
284 280 277 275 273 272 272 271 270 269 268 266 265 264 264 262 258 252 247 246 248 253 256 255 251 246 243 244 245 243 236 227 220 215 210 204 199 195 190 186 180 172 164 158 153 150 150 155 172 188 196 196 195 194 190 183 179 178 181 184 186 186 184 183 184 185 185 185 184 183 181 180 180 180 179 177 176 176 179 183 187 191 194 195 197 199
Height
760 760 759 759 759 759 758 758 758 759 758 759 759 759 759 759 759 759 759 759 759 759 759 759 759 759 759 759 760 760 760 761 761 761 762 762 762 762 762 763 763 763 763 763 764 764 765 765 766 766 767 767 768 768 769 769 770 770 771 772 772 773 773 773 774 774 775 775 776 776 777 777 778 779 779 779 780 780 781 782 782 782 782 782 783 784
758 758 758 758 758 757 757 757 757 757 757 757 757 757 757 757 757 757 757 757 757 757 757 757 757 757 758 758 758 758 758 759 759 760 760 760 761 761 761 761 761 761 762 762 762 762 763 763 764 764 765 766 766 767 767 768 768 769 769 770 771 772 772 772 772 773 773 774 774 775 776 776 777 777 778 778 779 779 780 781 782 782 782 782 782 783
756 756 756 756 756 756 755 755 755 755 755 755 756 756 756 756 756 755 756 756 756 756 756 756 756 756 756 756 756 757 757 757 757 758 758 758 759 759 759 759 760 760 760 760 760 761 761 762 762 763 763 764 764 765 766 766 767 767 768 768 769 770 771 771 772 772 772 772 773 774 774 775 776 776 777 777 777 778 779 780 780 781 781 782 782 783
755 754 754 754 755 754 754 754 754 754 754 754 754 754 754 754 754 754 754 754 754 754 754 754 754 754 754 754 755 755 755 756 756 756 757 757 757 757 757 757 758 758 758 758 759 759 760 760 761 761 762 762 762 763 764 764 765 765 766 767 767 768 769 769 770 771 771 771 772 772 773 774 774 775 775 776 776 777 778 779 779 780 781 781 782 782
753 752 752 753 753 752 752 752 752 752 752 752 752 752 752 752 752 752 752 752 752 752 752 752 752 752 752 752 753 753 754 754 754 754 755 755 755 755 756 756 756 756 757 757 757 757 758 758 759 759 760 760 761 761 762 762 763 763 764 765 766 767 767 768 768 769 770 770 770 771 772 772 773 773 774 774 775 776 777 777 778 779 780 780 781 781
751 751 751 751 751 751 750 750 751 751 750 750 750 750 750 750 750 750 750 750 751 751 751 751 751 751 751 751 751 752 752 752 752 752 753 753 753 753 754 754 754 754 755 755 755 756 756 757 757 758 758 758 759 759 760 761 761 762 762 763 764 765 765 766 767 767 768 768 769 770 770 771 772 772 773 773 774 775 775 776 777 777 779 779 780 780
749 749 749 749 749 748 748 748 748 749 749 748 748 748 748 748 748 748 748 748 748 748 749 749 749 749 749 749 749 750 750 750 751 751 751 751 751 751 752 752 752 752 752 753 753 754 754 755 755 756 756 757 757 757 758 758 759 760 760 761 762 763 764 765 765 766 766 767 767 768 769 770 770 771 772 772 772 773 774 774 775 776 777 778 779 780
747 747 747 747 747 746 746 746 746 747 747 747 747 747 747 746 746 746 746 747 747 747 747 747 747 747 747 747 747 748 748 748 748 749 749 749 749 749 749 749 749 750 750 751 751 752 752 753 753 754 754 755 755 756 756 757 757 758 758 759 760 762 762 763 763 764 765 765 766 767 767 768 769 770 770 771 771 772 772 773 774 775 776 777 778 779
745 745 745 745 745 745 745 744 744 744 745 745 745 745 745 745 744 744 744 744 744 744 744 745 745 745 745 745 746 746 746 747 747 747 747 747 747 747 747 747 747 747 747 748 748 749 750 750 751 752 752 753 753 754 754 755 755 756 757 758 759 760 761 761 762 762 763 764 765 765 766 767 767 768 769 769 770 771 771 772 773 774 775 776 777 777
744 744 743 742 742 743 743 743 742 742 743 743 743 743 743 743 743 743 742 742 742 742 742 742 743 743 743 743 743 744 744 744 744 744 744 744 744 745 745 745 745 745 745 746 746 747 747 748 749 749 750 751 751 752 752 753 754 754 755 756 757 758 759 759 760 761 762 762 763 764 765 766 766 767 767 768 769 770 770 771 772 773 774 775 776 777
742 742 742 741 741 741 741 741 741 741 741 742 742 741 741 742 742 742 741 740 740 740 740 740 741 741 741 741 741 742 742 742 742 742 742 742 742 742 742 742 742 742 742 743 743 744 745 745 746 747 747 748 749 750 750 751 752 753 754 755 756 757 757 758 759 759 760 761 762 763 763 764 765 766 766 767 768 769 770 771 771 772 773 773 774 775
740 740 739 739 739 738 739 739 739 739 739 740 740 740 740 739 740 740 740 739 738 738 738 738 738 738 739 739 739 739 740 740 740 740 740 740 740 740 740 740 740 740 740 740 741 741 742 743 743 744 745 746 747 747 748 749 750 751 752 753 754 755 755 756 757 758 759 760 760 761 762 763 764 764 765 766 767 767 769 770 771 772 772 773 774 775
738 738 737 737 737 737 737 737 737 737 737 738 738 738 737 738 738 739 739 737 737 737 737 737 736 736 736 737 737 737 737 738 738 738 738 738 738 738 738 737 737 737 737 738 738 739 739 740 741 742 743 743 744 745 746 747 748 749 750 751 752 753 754 755 756 757 757 758 759 760 761 762 762 763 764 764 765 766 767 769 770 771 772 772 773 774
737 737 736 735 735 735 735 735 735 735 735 735 735 735 735 736 736 737 737 736 735 735 736 735 735 734 734 734 735 735 736 736 736 736 735 735 735 735 736 735 735 735 735 736 736 736 737 738 739 740 740 741 742 743 744 745 747 747 748 750 751 752 752 753 754 755 756 757 757 758 759 760 761 762 762 763 764 765 766 767 769 770 771 772 773 774
735 735 734 733 732 732 732 732 732 732 732 732 732 733 733 734 734 735 735 734 733 733 734 734 733 733 732 732 732 733 733 733 733 733 733 732 732 733 733 733 733 733 733 734 734 734 735 736 737 737 738 739 740 741 742 743 745 746 747 748 749 750 751 752 752 753 754 755 756 757 758 759 760 760 761 762 763 764 765 766 767 768 770 771 772 772
734 733 732 730 729 729 730 730 730 729 729 730 730 731 731 732 732 732 732 732 732 732 732 733 732 732 730 730 730 731 731 731 731 731 731 730 730 731 731 732 731 731 731 731 732 732 733 734 735 735 736 737 737 739 740 742 743 744 745 746 747 748 749 750 751 752 752 753 754 755 756 757 758 759 760 761 762 763 764 765 766 767 768 769 770 771
733 732 730 729 727 727 727 727 727 727 727 727 728 728 728 729 729 730 730 729 730 730 730 731 731 730 728 728 728 728 729 729 729 729 729 728 728 728 729 729 729 729 729 729 729 730 731 732 732 733 734 735 736 737 738 740 741 742 743 744 745 746 747 748 749 750 751 752 753 754 755 756 757 757 758 760 761 762 763 764 765 765 767 767 768 770
732 731 729 728 727 726 725 726 726 726 726 726 726 726 726 726 727 727 727 727 727 727 727 728 728 727 727 727 726 726 727 727 727 727 727 727 727 727 727 727 727 727 727 727 727 728 729 730 731 731 732 733 734 735 737 738 739 740 741 742 743 744 745 746 747 748 749 750 752 752 753 754 755 756 757 758 760 761 762 762 763 764 765 766 767 768
730 729 728 727 725 724 724 724 724 724 724 724 724 724 724 723 724 724 724 724 725 725 725 725 725 725 725 725 724 724 725 725 726 726 726 725 725 725 726 726 726 726 725 725 725 726 727 728 729 729 730 731 732 734 735 736 737 738 739 741 742 742 743 745 746 747 748 749 750 751 752 753 754 755 756 757 758 759 760 761 762 763 764 765 766 767
728 727 727 726 724 723 722 722 722 722 722 722 722 722 721 721 721 722 721 722 722 722 722 722 722 722 722 722 723 723 723 724 724 724 724 724 724 723 724 724 724 724 724 723 723 724 725 726 727 728 729 730 731 732 733 735 736 737 738 739 740 741 742 743 744 746 747 747 748 750 751 752 753 754 755 756 757 758 759 760 761 762 762 764 765 766
727 725 724 725 724 722 721 720 720 720 720 720 719 718 718 718 718 718 718 719 719 719 719 720 719 719 720 721 721 721 722 722 722 723 723 723 722 722 722 722 723 723 722 722 722 723 724 725 726 727 727 729 730 731 732 733 734 735 737 737 738 740 741 742 743 744 745 746 747 748 749 751 752 752 753 755 756 757 758 759 759 760 761 762 763 765
725 723 723 723 723 721 719 719 718 719 719 719 718 717 716 716 715 715 715 716 716 716 716 716 716 716 717 718 718 719 720 720 721 721 722 722 721 720 720 721 721 721 721 720 721 722 722 724 725 726 727 727 729 730 731 732 733 734 735 736 737 738 739 740 742 742 744 745 746 747 748 749 750 751 752 753 755 756 757 757 758 759 760 761 762 763
723 722 721 721 721 720 718 717 717 717 717 717 716 715 714 714 713 712 712 712 712 713 713 713 713 714 715 716 717 717 718 718 719 720 721 720 719 718 718 719 719 719 719 719 720 721 722 722 723 725 726 727 727 728 729 730 732 732 734 735 736 737 738 739 740 741 742 743 744 746 747 748 749 750 751 752 753 754 755 756 757 758 759 760 761 762
721 720 719 719 718 718 717 717 717 716 716 716 715 714 713 713 712 711 710 710 710 710 711 711 712 713 713 714 714 715 716 717 718 719 719 718 717 716 716 717 717 717 717 718 718 719 720 721 722 723 724 725 726 727 728 729 730 731 732 733 734 735 736 737 738 739 741 742 743 744 746 747 748 749 750 751 752 753 754 755 756 757 758 759 760 761
718 717 717 716 716 716 715 715 715 714 714 714 713 712 712 712 711 711 710 709 709 709 709 710 710 711 711 712 712 713 713 714 716 717 717 717 715 715 714 715 715 715 716 716 717 718 719 720 721 722 722 723 725 726 726 727 728 729 730 731 732 733 735 736 737 738 739 740 742 743 744 745 747 747 749 750 751 752 753 754 755 756 757 758 759 760
716 715 714 714 714 713 713 713 713 712 712 712 712 711 711 711 710 710 709 708 708 708 708 708 708 708 709 710 710 710 711 712 713 714 715 715 714 713 712 713 713 713 714 715 716 717 717 718 719 720 721 722 723 724 725 726 727 727 729 730 731 732 733 734 735 736 737 739 740 742 743 744 745 746 747 748 750 751 752 753 754 755 756 757 758 759
713 712 712 712 711 711 711 711 711 710 710 710 710 710 710 710 709 708 707 707 707 707 707 706 706 706 707 707 707 707 708 709 710 712 713 713 713 712 711 711 711 712 712 713 714 715 716 717 717 718 719 720 721 722 723 724 725 726 727 728 729 730 731 732 733 734 736 737 739 740 741 742 744 745 746 747 748 750 751 752 752 753 755 756 757 757
710 709 709 709 708 708 708 708 708 708 708 707 707 708 708 708 707 706 704 705 705 706 705 704 704 704 704 704 704 705 706 707 707 709 711 712 712 710 709 709 710 710 711 712 712 713 714 715 716 716 717 718 719 720 721 722 723 724 725 726 727 728 729 730 732 733 734 736 737 738 740 741 742 744 745 746 747 748 749 750 752 752 753 754 755 756
707 707 707 706 706 706 706 706 706 706 706 706 705 705 706 705 704 703 702 703 704 704 702 702 702 702 702 702 702 703 704 704 705 706 708 710 710 708 707 708 708 709 709 710 711 712 713 713 714 714 715 716 717 719 719 721 722 722 723 724 725 726 727 729 730 731 733 734 736 737 739 740 741 742 744 745 746 747 748 749 750 752 752 753 754 755
705 705 705 704 704 704 704 703 703 703 703 704 704 703 703 703 702 701 700 702 702 701 700 699 700 700 700 701 702 702 702 701 702 703 706 708 707 706 707 707 707 707 708 709 711 712 712 712 712 712 713 715 716 717 718 719 721 721 722 723 724 725 726 727 728 730 731 733 734 736 737 739 740 741 742 744 745 746 747 748 749 750 751 752 753 754
703 703 703 702 702 702 702 702 702 702 702 702 702 702 701 701 700 700 699 700 699 698 697 697 697 697 697 698 699 699 698 698 699 701 703 705 705 704 705 705 706 705 706 707 708 710 710 710 710 710 712 713 714 715 717 718 719 720 720 722 723 724 725 726 727 729 730 732 733 735 736 737 739 740 741 742 744 745 746 747 748 748 749 751 752 753
702 701 701 701 700 700 700 700 700 700 700 700 700 700 700 700 699 699 698 698 697 697 696 696 695 695 695 695 694 694 694 695 696 697 700 702 702 702 703 704 704 704 704 704 705 706 707 707 708 708 709 711 712 714 715 716 717 718 719 720 721 723 724 726 727 728 729 731 732 733 735 736 737 739 740 741 742 744 745 746 746 747 748 749 751 752
700 699 698 698 698 698 698 698 698 698 698 698 698 698 698 697 697 697 697 696 696 696 695 695 694 693 693 692 691 691 691 692 694 695 697 699 700 701 702 702 703 703 703 703 703 703 704 705 706 707 707 709 710 712 713 715 715 716 717 718 719 721 723 724 726 727 728 730 731 733 734 735 737 738 739 740 741 742 743 744 745 746 747 748 749 751
697 697 696 696 696 696 696 696 696 696 696 696 696 696 696 695 695 695 694 694 694 694 693 693 693 692 692 692 691 690 690 691 692 693 695 697 698 699 699 700 701 702 702 702 702 702 702 703 704 705 706 707 708 710 712 713 714 715 716 717 718 719 721 722 724 726 727 728 730 732 733 734 736 737 738 739 740 742 742 743 744 745 746 747 748 749
696 695 694 694 694 693 693 693 693 693 693 693 693 693 693 693 692 692 692 692 692 691 691 691 691 691 690 690 690 689 688 689 690 691 693 694 696 697 697 698 699 700 701 701 701 701 701 702 702 703 704 706 707 708 710 711 712 713 714 716 717 717 719 720 722 723 725 727 728 730 731 733 734 736 737 738 739 740 742 742 743 744 745 746 747 748
693 692 692 692 692 691 691 691 691 691 691 691 691 691 691 691 690 690 689 689 689 689 688 688 688 688 688 688 688 687 687 687 688 689 690 691 693 694 695 695 696 697 698 698 699 699 700 700 701 701 702 704 706 707 708 709 711 712 713 714 715 716 717 718 719 721 723 725 726 728 729 731 732 734 736 737 738 739 740 741 742 743 744 745 746 747
691 691 690 690 690 690 689 689 689 689 689 689 689 689 689 689 688 687 687 687 686 686 686 686 686 685 686 686 686 685 686 686 687 687 687 688 690 691 692 692 693 694 695 695 696 697 698 699 700 701 702 702 703 704 705 707 709 711 712 712 714 715 716 717 718 719 721 722 724 726 727 729 731 732 734 736 737 739 740 741 742 742 743 745 746 747
690 689 689 689 689 688 688 687 687 687 687 687 687 687 687 687 686 685 685 684 684 684 683 683 683 682 682 683 683 683 684 685 684 684 684 685 686 687 688 689 690 691 691 692 693 694 695 697 698 700 700 700 700 701 702 704 707 708 710 711 712 713 715 716 717 718 719 721 722 724 726 727 729 731 733 735 736 738 739 740 741 742 743 744 745 746
688 688 687 687 687 687 686 686 685 685 685 685 684 684 684 684 684 683 683 682 682 681 681 681 680 680 680 680 681 681 682 682 682 681 682 682 683 684 685 686 687 687 688 689 690 691 692 693 694 695 696 697 698 699 700 702 703 705 707 710 711 712 713 714 715 717 718 719 721 723 724 726 727 729 731 733 734 736 737 738 740 741 742 743 745 746
687 686 686 685 685 684 684 683 683 683 683 682 682 682 682 682 681 681 680 680 680 679 678 678 678 678 678 678 678 678 678 678 679 679 679 680 680 681 682 683 683 684 686 687 688 689 689 690 691 692 692 694 696 697 698 700 701 702 705 708 710 711 711 712 713 715 716 717 719 721 722 724 726 727 729 731 732 733 734 736 737 739 740 741 743 744
685 684 683 683 683 682 682 682 681 681 681 680 680 680 679 679 678 678 678 678 677 677 677 677 677 677 676 676 676 676 676 676 676 677 677 677 677 678 679 680 681 682 683 684 685 686 687 688 689 690 691 692 693 695 696 697 698 700 702 704 706 707 708 710 712 713 715 716 717 719 721 722 724 726 727 729 730 731 732 734 735 737 738 740 741 742
683 682 682 681 681 680 680 679 679 679 678 678 678 677 677 677 676 676 676 676 675 675 675 675 675 674 674 673 673 673 674 674 674 674 674 674 675 676 676 677 678 679 680 682 683 684 684 686 687 687 689 690 691 693 694 695 697 698 699 701 703 706 708 709 710 711 713 714 716 717 719 721 722 724 726 727 729 730 731 732 734 735 737 738 739 740
681 681 680 679 679 678 678 678 677 677 677 676 676 675 674 674 674 674 674 673 673 672 672 672 673 672 672 671 671 671 671 671 672 672 672 672 672 673 674 675 675 676 677 679 680 681 682 683 684 685 686 687 689 690 692 693 695 697 697 699 701 704 707 707 708 709 711 712 714 715 717 718 720 722 724 726 727 728 730 732 733 734 735 736 737 739
679 679 678 677 677 677 676 676 675 674 674 674 673 672 672 672 672 672 672 671 671 671 671 671 671 671 671 670 669 668 668 668 669 670 670 670 670 671 672 672 673 673 674 676 677 679 680 682 682 683 684 686 687 688 689 691 693 694 696 697 698 699 700 702 704 707 709 710 712 713 714 716 718 720 722 724 726 727 729 731 732 733 734 735 736 738
677 677 676 676 675 675 674 673 673 672 672 672 671 671 671 670 670 670 670 670 669 669 669 670 670 670 668 667 667 667 667 667 667 667 667 668 668 669 670 670 671 671 672 673 674 676 677 679 680 682 683 684 685 687 687 689 690 692 693 695 697 697 698 700 702 704 706 708 710 711 712 714 717 719 721 723 724 726 727 729 730 732 733 734 735 737
676 676 675 674 673 673 672 672 671 671 670 670 670 669 669 669 669 669 669 668 668 668 668 668 668 667 666 665 665 665 665 665 665 665 666 666 667 667 668 669 669 669 670 671 672 673 674 675 677 679 682 683 684 685 686 687 688 690 692 693 695 697 698 700 701 702 704 706 707 709 711 713 715 717 719 721 723 724 726 727 728 730 731 732 734 736
675 674 673 673 672 672 671 671 670 670 669 669 668 668 668 667 667 667 667 666 666 666 666 666 665 665 664 663 663 663 663 663 663 664 664 664 665 666 666 667 668 668 668 669 671 672 673 673 675 677 679 681 682 683 684 685 686 687 689 691 693 695 696 697 699 700 702 703 705 707 709 711 714 716 717 719 721 723 725 726 727 728 730 731 733 734
674 673 672 672 671 670 670 669 669 668 668 667 666 666 666 665 665 665 664 664 664 663 663 663 662 662 662 662 662 662 662 662 662 662 662 663 663 664 665 666 667 667 668 669 670 671 672 673 674 675 676 677 679 681 682 683 685 686 687 689 691 692 694 695 697 698 701 702 703 705 707 709 711 713 715 718 720 722 723 725 726 727 729 730 732 733
672 672 671 670 669 669 668 667 667 667 666 665 664 664 663 663 663 662 662 662 662 662 661 661 660 660 660 660 659 660 660 660 660 660 661 661 662 663 663 664 665 666 666 667 668 669 671 672 673 674 675 676 677 678 680 682 683 685 686 687 689 690 692 693 695 697 699 701 702 703 705 707 708 710 712 716 718 720 722 723 725 726 728 729 731 732
671 670 669 668 668 667 666 666 665 665 664 663 663 662 662 661 661 660 660 660 660 660 659 659 659 658 658 657 657 657 658 658 658 658 659 659 660 661 662 662 663 664 665 666 667 669 670 671 672 673 674 675 676 677 678 680 682 683 685 686 687 689 690 692 694 695 697 699 701 702 704 706 707 709 711 714 716 718 720 722 723 725 726 728 730 732
669 668 667 667 666 665 664 664 663 663 662 662 661 660 659 659 658 658 658 658 658 658 658 657 657 657 656 656 656 656 656 656 656 657 657 657 658 659 660 661 662 662 664 665 667 668 669 671 672 673 674 674 675 676 677 678 680 682 684 685 686 688 689 691 692 694 696 697 699 701 703 705 707 708 710 712 714 717 718 720 721 722 724 726 728 730